Appleton, MN

1:43 PM CDT on September 26, 2017 (GMT -0500)
Appleton Municipal

Weather History for KAQP - July, 2013

Change the Weather History Date:

Thursday, July 4, 2013

  Actual Average Record
Temperature  
Mean Temperature 76 °F -  
Max Temperature 91 °F 78 °F 96 °F (2012)
Min Temperature 62 °F 58 °F 48 °F (1997)
Cooling Degree Days 12    
Growing Degree Days 26 (Base 50)    
Moisture  
Dew Point 55 °F    
Average Humidity 49    
Maximum Humidity 82    
Minimum Humidity 26    
Precipitation  
Precipitation 0.00 in - - ()
Sea Level Pressure  
Sea Level Pressure 29.84 in    
Wind  
Wind Speed 8 mph (South)    
Max Wind Speed 16 mph    
Max Gust Speed 24 mph    
Visibility 10 miles    
Events      
Averages and records for this station are not official NWS values.
T = Trace of Precipitation, MM = Missing Value Source: NWS Daily Summary

Daily Weather History Graph

Daily Weather History Graph

Search for Another Location

Airport or City:

Trip Planner

Search our weather history database for the weather conditions in past years. The results will help you decide how hot, cold, wet, or windy it might be!

Date:

Astronomy

Jul. 04, 2013 Rise Set
Actual Time 5:42 AM CDT 9:14 PM CDT
Civil Twilight 5:05 AM CDT 9:51 PM CDT
Nautical Twilight 4:15 AM CDT 10:40 PM CDT
Astronomical Twilight 3:11 AM CDT 11:44 PM CDT
Moon 3:03 AM CDT (7/4) 6:16 PM CDT (7/4)
Length of Visible Light 16h 46m
Length of Day
15h 32m
Waning Crescent, 11% of the Moon is Illuminated
Jul 4
Waning Crescent
Jul 8
New
Jul 15
First Quarter
Jul 22
Full
Jul 29
Last Quarter

Hourly Weather History & Observations

Time (CDT) Temp. Heat Index Dew Point Humidity Pressure Visibility Wind Dir Wind Speed Gust Speed Precip Events Conditions
12:13 AM 69.8 °F - 51.8 °F 53% 29.92 in 10.0 mi SE 6.9 mph - N/A   Clear
12:33 AM 69.8 °F - 51.8 °F 53% 29.92 in 10.0 mi SE 6.9 mph - N/A   Clear
12:53 AM 69.8 °F - 51.8 °F 53% 29.92 in 10.0 mi SSE 6.9 mph - N/A   Clear
1:13 AM 69.8 °F - 51.8 °F 53% 29.91 in 10.0 mi SSE 5.8 mph - N/A   Clear
1:33 AM 68.0 °F - 51.8 °F 56% 29.91 in 10.0 mi SE 5.8 mph - N/A   Clear
1:53 AM 68.0 °F - 51.8 °F 56% 29.91 in 10.0 mi SE 5.8 mph - N/A   Clear
2:13 AM 66.2 °F - 51.8 °F 60% 29.91 in 10.0 mi SSE 6.9 mph - N/A   Clear
2:33 AM 66.2 °F - 51.8 °F 60% 29.90 in 10.0 mi SE 6.9 mph - N/A   Clear
2:53 AM 66.2 °F - 51.8 °F 60% 29.90 in 10.0 mi SSE 6.9 mph - N/A   Clear
3:13 AM 66.2 °F - 53.6 °F 64% 29.90 in 10.0 mi SSE 5.8 mph - N/A   Clear
3:33 AM 64.4 °F - 53.6 °F 68% 29.90 in 10.0 mi SSE 4.6 mph - N/A   Clear
3:53 AM 64.4 °F - 53.6 °F 68% 29.89 in 10.0 mi SSE 4.6 mph - N/A   Clear
4:13 AM 64.4 °F - 53.6 °F 68% 29.89 in 10.0 mi SSE 5.8 mph - N/A   Clear
4:33 AM 64.4 °F - 53.6 °F 68% 29.89 in 10.0 mi SSE 3.5 mph - N/A   Clear
4:53 AM 62.6 °F - 55.4 °F 77% 29.89 in 10.0 mi Calm Calm - N/A   Clear
5:14 AM 62.6 °F - 55.4 °F 77% 29.90 in 10.0 mi SE 3.5 mph - N/A   Clear
5:33 AM 62.6 °F - 55.4 °F 77% 29.89 in 10.0 mi Calm Calm - N/A   Clear
5:54 AM 62.6 °F - 57.2 °F 82% 29.89 in 10.0 mi SSE 3.5 mph - N/A   Clear
6:13 AM 62.6 °F - 57.2 °F 82% 29.89 in 10.0 mi Calm Calm - N/A   Clear
6:34 AM 64.4 °F - 57.2 °F 77% 29.89 in 10.0 mi SE 3.5 mph - N/A   Clear
6:53 AM 66.2 °F - 57.2 °F 73% 29.88 in 10.0 mi SSE 4.6 mph - N/A   Clear
7:13 AM 68.0 °F - 57.2 °F 68% 29.88 in 10.0 mi SSE 5.8 mph - N/A   Clear
7:33 AM 71.6 °F - 57.2 °F 60% 29.88 in 10.0 mi South 6.9 mph - N/A   Scattered Clouds
7:53 AM 71.6 °F - 57.2 °F 60% 29.89 in 10.0 mi South 6.9 mph - N/A   Mostly Cloudy
8:13 AM 71.6 °F - 57.2 °F 60% 29.88 in 10.0 mi South 6.9 mph - N/A   Scattered Clouds
8:34 AM 73.4 °F - 57.2 °F 57% 29.88 in 10.0 mi South 8.1 mph - N/A   Clear
8:53 AM 75.2 °F - 59.0 °F 57% 29.87 in 10.0 mi South 8.1 mph - N/A   Clear
9:13 AM 75.2 °F - 59.0 °F 57% 29.87 in 10.0 mi South 10.4 mph - N/A   Scattered Clouds
9:33 AM 78.8 °F - 59.0 °F 51% 29.86 in 10.0 mi South 10.4 mph - N/A   Clear
9:53 AM 80.6 °F 80.5 °F 55.4 °F 42% 29.86 in 10.0 mi South 10.4 mph - N/A   Clear
10:14 AM 80.6 °F 80.5 °F 55.4 °F 42% 29.85 in 10.0 mi South 11.5 mph - N/A   Clear
10:34 AM 82.4 °F 81.7 °F 55.4 °F 39% 29.84 in 10.0 mi South 12.7 mph 16.1 mph N/A   Clear
10:53 AM 82.4 °F 81.7 °F 55.4 °F 39% 29.84 in 10.0 mi South 11.5 mph 17.3 mph N/A   Clear
11:14 AM 84.2 °F 83.0 °F 55.4 °F 37% 29.84 in 10.0 mi South 16.1 mph - N/A   Clear
11:33 AM 84.2 °F 83.0 °F 55.4 °F 37% 29.84 in 10.0 mi South 11.5 mph 16.1 mph N/A   Clear
11:53 AM 86.0 °F 84.2 °F 53.6 °F 33% 29.83 in 10.0 mi South 10.4 mph 18.4 mph N/A   Clear
12:13 PM 87.8 °F 86.1 °F 55.4 °F 33% 29.83 in 7.0 mi SSE 11.5 mph 17.3 mph N/A   Clear
12:34 PM 87.8 °F 85.7 °F 53.6 °F 31% 29.82 in 10.0 mi South 11.5 mph 18.4 mph N/A   Clear
12:53 PM 87.8 °F 85.7 °F 53.6 °F 31% 29.82 in 7.0 mi SSW 11.5 mph 21.9 mph N/A   Clear
3:15 PM 91.4 °F - - N/A% 29.80 in - South 15.0 mph - N/A   Unknown
3:34 PM 91.4 °F - 51.8 °F 26% 29.79 in 10.0 mi South 13.8 mph 23.0 mph N/A   Clear
3:53 PM 91.4 °F - 51.8 °F 26% 29.79 in 10.0 mi SSW 16.1 mph 24.2 mph N/A   Clear
4:13 PM 89.6 °F - 51.8 °F 27% 29.79 in 10.0 mi South 13.8 mph 21.9 mph N/A   Clear
4:33 PM 89.6 °F 87.3 °F 53.6 °F 29% 29.79 in 10.0 mi South 13.8 mph 21.9 mph N/A   Clear
4:54 PM 89.6 °F 87.3 °F 53.6 °F 29% 29.79 in 10.0 mi South 15.0 mph 20.7 mph N/A   Clear
5:13 PM 87.8 °F 85.7 °F 53.6 °F 31% 29.79 in 10.0 mi South 16.1 mph 20.7 mph N/A   Clear
5:33 PM 87.8 °F 86.1 °F 55.4 °F 33% 29.78 in 10.0 mi South 13.8 mph 18.4 mph N/A   Clear
5:54 PM 87.8 °F 86.1 °F 55.4 °F 33% 29.78 in 10.0 mi South 11.5 mph 17.3 mph N/A   Clear
6:13 PM 86.0 °F 84.5 °F 55.4 °F 35% 29.78 in 10.0 mi South 9.2 mph - N/A   Clear
6:33 PM 86.0 °F 84.5 °F 55.4 °F 35% 29.78 in 10.0 mi South 11.5 mph - N/A   Clear
6:53 PM 87.8 °F 86.5 °F 57.2 °F 35% 29.78 in 10.0 mi South 9.2 mph - N/A   Clear
7:14 PM 86.0 °F 84.9 °F 57.2 °F 37% 29.77 in 10.0 mi South 12.7 mph 19.6 mph N/A   Clear
7:33 PM 86.0 °F 84.9 °F 57.2 °F 37% 29.77 in 10.0 mi South 13.8 mph 18.4 mph N/A   Clear
7:53 PM 84.2 °F 83.5 °F 57.2 °F 40% 29.76 in 10.0 mi South 12.7 mph 16.1 mph N/A   Clear
8:13 PM 84.2 °F 83.5 °F 57.2 °F 40% 29.76 in 10.0 mi South 11.5 mph - N/A   Clear
8:33 PM 82.4 °F 82.0 °F 57.2 °F 42% 29.77 in 10.0 mi South 9.2 mph - N/A   Clear
8:53 PM 82.4 °F 82.0 °F 57.2 °F 42% 29.77 in 10.0 mi South 8.1 mph - N/A   Clear
9:13 PM 80.6 °F 80.8 °F 57.2 °F 45% 29.77 in 10.0 mi South 8.1 mph - N/A   Clear
9:33 PM 80.6 °F 80.8 °F 57.2 °F 45% 29.77 in 10.0 mi South 10.4 mph - N/A   Clear
9:53 PM 80.6 °F 80.8 °F 57.2 °F 45% 29.78 in 10.0 mi South 10.4 mph - N/A   Clear
10:13 PM 80.6 °F 80.8 °F 57.2 °F 45% 29.79 in 10.0 mi SSE 11.5 mph 17.3 mph N/A   Clear
10:33 PM 78.8 °F - 57.2 °F 47% 29.79 in 10.0 mi SSE 11.5 mph 17.3 mph N/A   Clear
10:53 PM 78.8 °F - 57.2 °F 47% 29.79 in 10.0 mi South 10.4 mph - N/A   Clear
11:13 PM 78.8 °F - 57.2 °F 47% 29.79 in 10.0 mi South 10.4 mph - N/A   Clear
11:33 PM 78.8 °F - 57.2 °F 47% 29.79 in 10.0 mi South 8.1 mph - N/A   Clear
11:53 PM 77.0 °F - 57.2 °F 50% 29.79 in 10.0 mi South 10.4 mph - N/A   Clear